This demonstration page uses our WeatherBlox Daily Observations layout. Learn more.

Left ArrowRight Arrow

38.20091, -84.87328

Hourly Observations for April 22, 2022

Temp ( °F °C ) Dew Point ( °F °C ) Humidity (%) Winds ( mph kmh ) Pressure ( in mb ) Visibility ( mi km ) Precip ( " mm )
12:53 am 00:53 Cloudy 56 13.3 53 11.7 90 90 Calm 30.37 1029 10 16 0.00 0.00
1:53 am 01:53 Cloudy 55 12.8 53 11.7 93 93 Calm 30.37 1028 7 11 0.00 0.00
2:53 am 02:53 Mostly Cloudy 56 13.3 53 11.7 90 90 Calm 30.37 1028 7 11 0.00 0.00
3:53 am 03:53 Mostly Cloudy with Mist and Fog 55 12.8 52 11.1 90 90 Calm 30.37 1028 4 6 0.00 0.00
3:59 am 03:59 Mostly Cloudy with Mist and Fog 54 12.2 52 11.1 93 93 Calm 30.38 1029 2 2 0.00 0.00
4:14 am 04:14 Cloudy with Mist and Fog 54 12.2 52 11.1 93 93 Calm 30.38 1029 3 5 0.00 0.00
4:53 am 04:53 Mostly Cloudy 54 12.2 51 10.6 90 90 Calm 30.37 1028 7 11 0.00 0.00
5:53 am 05:53 Partly Cloudy with Mist and Fog 54 12.2 52 11.1 93 93 Calm 30.37 1028 4 6 0.00 0.00
6:22 am 06:22 Cloudy with Mist and Fog 54 12.2 52 11.1 93 93 Calm 30.39 1029 3 4 0.00 0.00
6:30 am 06:30 Cloudy with Mist and Fog 54 12.2 52 11.1 93 93 Calm 30.39 1029 4 6 0.00 0.00
6:53 am 06:53 Cloudy with Mist and Fog 54 12.2 52 11.1 93 93 Calm 30.40 1029 5 8 0.00 0.00
7:17 am 07:17 Mostly Cloudy with Mist and Fog 54 12.2 52 11.1 93 93 SE 3 6 30.40 1030 3 4 0.00 0.00
7:28 am 07:28 Partly Cloudy with Mist and Fog 55 12.8 52 11.1 90 90 Calm 30.41 1030 4 6 0.00 0.00
7:53 am 07:53 Sunny with Mist and Fog 56 13.3 53 11.7 90 90 Calm 30.41 1030 4 6 0.00 0.00
8:53 am 08:53 Hazy 60 15.6 55 12.8 84 84 ENE 3 6 30.41 1030 6 10 0.00 0.00
9:53 am 09:53 Sunny 65 18.3 57 13.9 76 76 NE 3 6 30.42 1030 10 16 0.00 0.00
10:53 am 10:53 Mostly Cloudy 69 20.6 58 14.4 68 68 ENE 8 13 30.42 1030 10 16 0.00 0.00
11:53 am 11:53 Sunny 71 21.7 58 14.4 63 63 E 7 11 30.40 1029 10 16 0.00 0.00
12:53 pm 12:53 Partly Cloudy 74 23.3 59 15 60 60 SSE 9 15 30.38 1029 10 16 0.00 0.00
1:53 pm 13:53 Mostly Sunny 76 24.4 59 15 56 56 VRB 3 6 30.35 1028 10 16 0.00 0.00
2:53 pm 14:53 Mostly Cloudy 78 25.6 61 16.1 56 56 ESE 6 9 30.32 1027 10 16 0.00 0.00
3:53 pm 15:53 Mostly Sunny 79 26.1 60 15.6 52 52 VRB 5 7 30.29 1026 10 16 0.00 0.00
4:53 pm 16:53 Mostly Sunny 80 26.7 59 15 49 49 S 9 15 30.26 1025 10 16 0.00 0.00
5:53 pm 17:53 Partly Cloudy 80 26.7 59 15 49 49 SSE 10 17 30.23 1024 10 16 0.00 0.00
6:53 pm 18:53 Mostly Sunny 79 26.1 58 14.4 49 49 ESE 7 11 30.22 1023 10 16 0.00 0.00
7:53 pm 19:53 Sunny 76 24.4 58 14.4 54 54 E 3 6 30.22 1023 10 16 0.00 0.00
8:53 pm 20:53 Mostly Clear 68 20 59 15 73 73 Calm 30.22 1023 10 16 0.00 0.00
9:53 pm 21:53 Clear 67 19.4 57 13.9 71 71 E 6 9 30.22 1023 10 16 0.00 0.00
10:53 pm 22:53 Clear 66 18.9 57 13.9 73 73 ESE 3 6 30.21 1023 10 16 0.00 0.00
11:53 pm 23:53 Clear 64 17.8 57 13.9 78 78 SE 3 6 30.20 1023 10 16 0.00 0.00

Powered by AerisWeather